Location: Lancaster
(34.6980°N, 118.1360°W)
Time: 02:03:19
(UTC-07:00)

Tiangong - Visible Passes

Search period start: 05 October 2022 00:00
Search period end: 15 October 2022 00:00
Orbit: 382 x 386 km, 41.5° (Epoch: 05 October)

Date Brightness Start Highest point End Pass type
(mag) Time Alt. Az. Time Alt. Az. Time Alt. Az.
05 Oct 0.0 19:14:53 10° S 19:16:33 14° SE 19:17:26 12° ESE visible
06 Oct -1.9 19:50:09 10° SW 19:53:07 50° SSE 19:53:07 50° SSE visible
07 Oct -0.8 18:50:44 10° SSW 18:53:25 26° SE 18:56:07 10° E visible
07 Oct 0.2 20:27:04 10° W 20:28:37 25° W 20:28:37 25° W visible
08 Oct -2.2 19:27:00 10° WSW 19:30:09 83° NNW 19:31:44 27° ENE visible
09 Oct -0.7 20:04:13 10° W 20:06:56 32° NNW 20:06:56 32° NNW visible
10 Oct -1.4 19:03:55 10° W 19:06:59 48° NNW 19:09:49 12° NE visible
10 Oct 1.2 20:41:37 10° WNW 20:42:00 12° NW 20:42:00 12° NW visible
11 Oct -0.5 19:41:14 10° WNW 19:43:58 26° N 19:44:47 23° NNE visible
12 Oct 0.5 20:18:26 10° NW 20:19:40 17° NW 20:19:40 17° NW visible
13 Oct -0.3 19:18:04 10° WNW 19:20:40 23° N 19:22:19 16° NE visible
14 Oct -0.3 19:54:57 10° NW 19:57:05 24° N 19:57:05 24° N visible
